Weather History for KBDL - January, 2013

Change the Weather History Date:

Friday, January 18, 2013

  Actual Average Record
Temperature  
Mean Temperature 24 °F 26 °F  
Max Temperature 28 °F 34 °F 63 °F (1973)
Min Temperature 19 °F 17 °F -17 °F (1957)
Degree Days  
Heating Degree Days 41 39  
Month to date heating degree days 606 699  
Since 1 July heating degree days 2645 2943  
Cooling Degree Days 0 0  
Month to date cooling degree days 0 0  
Year to date cooling degree days 0 0  
Moisture  
Dew Point 3 °F    
Average Humidity 44    
Maximum Humidity 52    
Minimum Humidity 35    
Precipitation  
Precipitation 0.00 in 0.11 in 1.32 in (2015)
Month to date precipitation 0.72 1.86  
Year to date precipitation 0.72 1.86  
Snow  
Snow 0.00 in 0.30 in 4.40 in (2009)
Month to date snowfall 3.6 7.0  
Since 1 July snowfall 19.4 16.4  
Snow Depth 3.00 in    
Sea Level Pressure  
Sea Level Pressure 30.32 in    
Wind  
Wind Speed 9 mph (NW)    
Max Wind Speed 21 mph    
Max Gust Speed 26 mph    
Visibility 10 miles    
Events      
T = Trace of Precipitation, MM = Missing Value Source: NWS Daily Summary

Daily Weather History Graph

Daily Weather History Graph

Search for Another Location

Airport or City:

Trip Planner

Search our weather history database for the weather conditions in past years. The results will help you decide how hot, cold, wet, or windy it might be!

Date:

Astronomy

Jan. 18, 2013 Rise Set
Actual Time 7:14 AM EST 4:48 PM EST
Civil Twilight 6:43 AM EST 5:19 PM EST
Nautical Twilight 6:09 AM EST 5:53 PM EST
Astronomical Twilight 5:36 AM EST 6:26 PM EST
Moon 10:43 AM EST (1/18) No Moon Set
Length of Visible Light 10h 35m
Length of Day
9h 34m
Waxing Crescent, 47% of the Moon is Illuminated
Jan 18
Waxing Crescent
Jan 18
First Quarter
Jan 26
Full
Feb 3
Last Quarter
Feb 10
New

Hourly Weather History & Observations

Time (EST) Temp. Windchill Dew Point Humidity Pressure Visibility Wind Dir Wind Speed Gust Speed Precip Events Conditions
12:51 AM 27.0 °F 19.5 °F 10.0 °F 49% 30.07 in 10.0 mi North 6.9 mph - N/A   Overcast
1:51 AM 26.6 °F 18.2 °F 6.8 °F 43% 30.08 in 10.0 mi North 8.1 mph - N/A   Overcast
2:51 AM 26.1 °F 18.4 °F 6.1 °F 43% 30.11 in 10.0 mi NNW 6.9 mph - N/A   Overcast
3:51 AM 26.1 °F 15.0 °F 7.0 °F 44% 30.10 in 10.0 mi NNW 12.7 mph 17.3 mph N/A   Overcast
4:51 AM 24.1 °F 13.7 °F 5.0 °F 44% 30.14 in 10.0 mi North 10.4 mph - N/A   Mostly Cloudy
5:51 AM 21.0 °F 9.3 °F 1.9 °F 44% 30.20 in 10.0 mi North 11.5 mph - N/A   Partly Cloudy
6:51 AM 19.9 °F 11.1 °F -0.0 °F 42% 30.26 in 10.0 mi NNW 6.9 mph - N/A   Partly Cloudy
7:51 AM 19.0 °F 9.0 °F -0.9 °F 42% 30.31 in 10.0 mi NNW 8.1 mph - N/A   Partly Cloudy
8:51 AM 19.9 °F 6.7 °F -0.9 °F 40% 30.35 in 10.0 mi WNW 13.8 mph 19.6 mph N/A   Clear
9:51 AM 21.0 °F 12.4 °F -0.9 °F 38% 30.38 in 10.0 mi NW 6.9 mph - N/A   Clear
10:51 AM 21.9 °F 8.7 °F -0.0 °F 38% 30.40 in 10.0 mi NW 15.0 mph 21.9 mph N/A   Partly Cloudy
11:51 AM 23.0 °F 8.3 °F -0.0 °F 37% 30.38 in 10.0 mi NW 19.6 mph 25.3 mph N/A   Partly Cloudy
12:51 PM 24.1 °F 13.1 °F -0.0 °F 35% 30.39 in 10.0 mi NNW 11.5 mph 20.7 mph N/A   Partly Cloudy
1:51 PM 24.1 °F 11.0 °F 1.0 °F 37% 30.40 in 10.0 mi West 16.1 mph 23.0 mph N/A   Partly Cloudy
2:51 PM 25.0 °F 13.1 °F 1.0 °F 36% 30.41 in 10.0 mi WNW 13.8 mph - N/A   Partly Cloudy
3:51 PM 25.0 °F 16.3 °F 1.0 °F 36% 30.41 in 10.0 mi WNW 8.1 mph - N/A   Partly Cloudy
4:51 PM 23.0 °F 15.8 °F 1.4 °F 39% 30.41 in 10.0 mi West 5.8 mph - N/A   Clear
5:51 PM 23.0 °F - 1.0 °F 39% 30.43 in 10.0 mi Calm Calm - N/A   Clear
6:51 PM 23.0 °F - 1.0 °F 39% 30.46 in 10.0 mi Calm Calm - N/A   Clear
7:51 PM 19.0 °F 10.0 °F 5.0 °F 54% 30.44 in 10.0 mi South 6.9 mph - N/A   Clear
8:51 PM 19.9 °F 10.1 °F 5.0 °F 52% 30.43 in 10.0 mi South 8.1 mph - N/A   Clear
9:51 PM 19.9 °F 12.1 °F 5.0 °F 52% 30.42 in 10.0 mi SSE 5.8 mph - N/A   Clear
10:51 PM 21.0 °F 11.4 °F 6.1 °F 53% 30.41 in 10.0 mi South 8.1 mph - N/A   Partly Cloudy
11:51 PM 21.9 °F 10.4 °F 7.0 °F 53% 30.36 in 10.0 mi South 11.5 mph - N/A   Mostly Cloudy